Location: Great Falls
(47.5000°N, 111.3000°W)
Time: 05:11:33
(UTC-07:00)

ISS - Visible Passes

Search period start: 11 February 2026 00:00
Search period end: 21 February 2026 00:00
Orbit: 413 x 429 km, 51.6° (Epoch: 10 February)

Date Brightness Start Highest point End Pass type
(mag) Time Alt. Az. Time Alt. Az. Time Alt. Az.
11 Feb -1.1 06:50:54 10° S 06:53:31 21° SE 06:56:09 10° E visible
12 Feb -0.8 06:04:50 10° S 06:06:41 14° SE 06:08:31 10° ESE visible
13 Feb -2.9 06:52:48 10° SW 06:56:02 50° SSE 06:59:17 10° ENE visible
14 Feb -2.2 06:06:07 11° SSW 06:09:04 33° SE 06:12:07 10° ENE visible
15 Feb -1.7 05:21:24 21° SSE 05:22:06 22° SE 05:24:46 10° E visible
15 Feb -3.8 06:55:19 10° WSW 06:58:40 77° NNW 07:02:01 10° ENE visible
16 Feb -0.5 04:36:31 12° ESE 04:36:31 12° ESE 04:37:07 10° E visible
16 Feb -3.7 06:09:32 22° WSW 06:11:33 77° SSE 06:14:54 10° ENE visible
17 Feb -3.2 05:24:30 52° SE 05:24:30 52° SE 05:27:44 10° ENE visible
18 Feb -0.9 04:39:21 18° E 04:39:21 18° E 04:40:29 10° ENE visible
18 Feb -3.6 06:12:20 24° W 06:14:09 58° NNW 06:17:27 10° ENE visible
19 Feb -3.7 05:27:06 73° NNE 05:27:06 73° NNE 05:30:17 10° ENE visible
20 Feb -1.2 04:41:47 22° ENE 04:41:47 22° ENE 04:43:05 10° ENE visible
20 Feb -3.0 06:14:46 19° WNW 06:16:46 41° N 06:19:57 10° ENE visible
